KI5IZM-13 Weather Reports


Display with metric or nautical units.
time (UTC)temp
F
wind
direction
speed
MPH
gust
MPH
rain 1hr
in
rain 24hr
in
rain mn
in
humidity
%
barometer
mb
20260502201517 74 91 0.0 4.0 0.00 0.02 0.01 43 1020.4
20260502200004 74 5 0.0 2.0 0.00 0.02 0.01 45 1020.6
20260502194510 74 309 0.0 4.0 0.00 0.02 0.01 45 1020.8
20260502193008 74 246 0.0 4.0 0.00 0.02 0.01 45 1021.1
20260502191513 74 349 1.0 4.0 0.00 0.02 0.01 44 1021.1
20260502190021 73 236 0.0 2.0 0.00 0.02 0.01 43 1021.2
20260502184525 73 344 0.0 6.0 0.00 0.02 0.01 43 1021.3
20260502183006 72 96 1.0 3.0 0.00 0.02 0.01 43 1021.5
20260502181509 72 265 0.0 4.0 0.00 0.02 0.01 46 1021.7
20260502163036 69 27 0.0 4.0 0.01 0.02 0.01 58 1022.2
20260502161535 68 257 0.0 3.0 0.01 0.02 0.01 61 1022.0
20260502151523 64 175 0.0 2.0 0.00 0.01 0.00 74 1022.1
20260502123010 48 94 0.0 1.0 0.00 0.02 0.00 96 1020.6
20260502121504 47 190 0.0 0.0 0.00 0.02 0.00 96 1020.5
20260502114507 47 190 0.0 0.0 0.00 0.02 0.00 96 1020.0
20260502113008 48 190 0.0 0.0 0.00 0.02 0.00 96 1019.8
20260502111512 48 191 0.0 0.0 0.00 0.02 0.00 95 1019.6
20260502110005 48 191 0.0 0.0 0.00 0.02 0.00 96 1019.5
20260502104513 49 191 0.0 0.0 0.00 0.02 0.00 95 1019.4
20260502103004 49 191 0.0 0.0 0.00 0.02 0.00 95 1019.3
20260502101511 49 191 0.0 0.0 0.00 0.02 0.00 95 1019.2
20260502091509 51 192 0.0 0.0 0.00 0.02 0.00 95 1018.9
20260502071522 53 192 0.0 0.0 0.00 0.02 0.00 95 1019.0
20260502070015 53 192 0.0 0.0 0.00 0.02 0.00 95 1019.1
20260502064512 53 192 0.0 0.0 0.00 0.02 0.00 95 1019.0
20260502063018 54 192 0.0 1.0 0.00 0.03 0.00 95 1019.1
20260502061521 54 167 0.0 0.0 0.00 0.03 0.00 96 1018.9
20260502060028 54 167 0.0 0.0 0.00 0.03 0.00 96 1018.9
20260502054510 54 167 0.0 0.0 0.00 0.03 0.00 95 1018.9
20260502053011 54 167 0.0 0.0 0.00 0.03 0.00 95 1018.7
20260502051523 54 167 0.0 0.0 0.00 0.03 0.00 95 1018.7
20260502050020 54 167 0.0 0.0 0.00 0.03 0.00 95 1018.7
20260502044525 54 167 0.0 0.0 0.00 0.03 0.03 95 1018.8
20260502043004 54 167 0.0 0.0 0.00 0.03 0.03 95 1018.6
20260502041506 54 167 0.0 0.0 0.00 0.03 0.03 95 1018.5
20260502040004 54 167 0.0 0.0 0.00 0.03 0.03 95 1018.6
20260502034505 54 167 0.0 0.0 0.00 0.03 0.03 94 1018.6
20260502033004 54 167 0.0 0.0 0.00 0.03 0.03 95 1018.7
20260502031505 54 167 0.0 0.0 0.00 0.03 0.03 94 1018.3
20260502030008 54 167 0.0 0.0 0.00 0.03 0.03 94 1018.2
20260502024505 54 155 0.0 0.0 0.00 0.03 0.03 94 1017.9
20260502023008 55 155 0.0 0.0 0.00 0.03 0.03 94 1017.6
20260502021508 55 155 0.0 1.0 0.00 0.03 0.03 94 1017.6
20260502020010 55 135 0.0 0.0 0.00 0.03 0.03 93 1017.6
20260502014510 55 135 0.0 1.0 0.00 0.03 0.03 92 1017.5
20260502013009 55 159 0.0 0.0 0.00 0.03 0.03 91 1018.2
20260502011508 55 159 0.0 0.0 0.00 0.03 0.03 91 1017.5
20260502010020 55 159 0.0 0.0 0.00 0.03 0.03 90 1017.4
20260502004514 55 151 0.0 2.0 0.00 0.03 0.03 89 1016.7
20260502003013 56 141 0.0 0.0 0.00 0.03 0.03 88 1016.6
20260502001513 56 143 0.0 3.0 0.00 0.04 0.03 86 1016.5
20260502000015 56 115 0.0 2.0 0.00 0.04 0.03 85 1016.4
20260501234515 56 125 0.0 1.0 0.00 0.04 0.03 84 1016.3
20260501233017 57 83 0.0 2.0 0.01 0.04 0.03 82 1016.1
20260501231515 57 32 0.0 3.0 0.01 0.04 0.03 82 1016.3
20260501230018 57 119 0.0 5.0 0.01 0.04 0.03 84 1015.4
20260501224509 57 130 0.0 1.0 0.01 0.04 0.03 85 1015.5
20260501223013 57 207 0.0 4.0 0.00 0.03 0.02 86 1015.6
20260501221517 57 112 0.0 1.0 0.00 0.03 0.02 86 1015.5
20260501220020 57 240 0.0 3.0 0.00 0.03 0.02 87 1015.2
20260501214535 57 143 0.0 7.0 0.00 0.04 0.02 85 1014.3
20260501213014 58 44 0.0 6.0 0.00 0.04 0.02 83 1014.0
20260501211516 57 113 1.0 7.0 0.00 0.04 0.02 85 1014.3
20260501210023 57 88 0.0 2.0 0.00 0.04 0.02 85 1014.6
20260501204521 56 103 0.0 5.0 0.00 0.04 0.02 84 1015.7
20260501203023 56 63 0.0 3.0 0.00 0.04 0.02 85 1016.1